Hourly Data Report for April 25, 2021

TORONTO CITY
ONTARIO
Current Station Operator: ECCC - MSC

43°40'00.000" N
79°24'00.000" W
112.50 m
6158355
71508
XTO

Download Data

Hourly Data (April 2021)
Hourly Data Report for April 25, 2021
TIME
LST
Temp Definition
°C
Dew Point Definition
°C
Rel Hum Definition
%
Precip. Amount Definition
mm

Wind Dir Definition
10's deg

Wind Spd Definition
km/h
Visibility Definition
km
Stn Press Definition
kPa
Hmdx Definition


Wind Chill Definition


Weather Definition


00:00 12.7 1.2 45 0.0       99.46     LegendNANA
01:00 12.3 2.3 51 0.0       99.41     LegendNANA
02:00 12.4 2.4 51 0.0       99.36     LegendNANA
03:00 11.9 3.1 55 0.0       99.34     LegendNANA
04:00 10.7 5.5 70 0.2       99.35     LegendNANA
05:00 10.2 6.4 77 0.3       99.35     LegendNANA
06:00 10.5 6.4 76 0.0       99.38     LegendNANA
07:00 9.8 7.3 84 0.3       99.43     LegendNANA
08:00 10.5 7.9 84 0.0       99.47     LegendNANA
09:00 11.0 6.2 73 0.0       99.50     LegendNANA
10:00 11.1 4.6 64 0.0       99.58     LegendNANA
11:00 10.7 3.6 61 0.0       99.64     LegendNANA
12:00 11.8 3.2 56 0.0       99.68     LegendNANA
13:00 10.7 1.3 52 0.0       99.75     LegendNANA
14:00 9.4 -0.7 49 0.0       99.84     LegendNANA
15:00 9.2 -1.9 45 0.0       99.90     LegendNANA
16:00 7.2 -2.8 49 0.0       99.99     LegendNANA
17:00 6.9 -2.2 52 0.0       100.09     LegendNANA
18:00 5.3 -3.5 53 0.0       100.22     LegendNANA
19:00 4.1 -2.4 62 0.0       100.31     LegendNANA
20:00 3.2 -4.9 55 0.0       100.44     LegendNANA
21:00 2.6 -6.2 52 0.0       100.53     LegendNANA
22:00 2.4 -6.2 53 0.0       100.54     LegendNANA
23:00 1.9 -6.9 52 0.0       100.58     LegendNANA

Notes on Data Quality.

Legend

  • E = Estimated
  • M = Missing
  • NA = Not Available*
  • [empty] = Indicates an unobserved value
Date modified: